timestamp,wind_dir_avg,wind_spd_max_dir,wind_spd_avg,wind_spd_gust,battery_voltage,lat,long
2018-06-13 00:00:00+00:00,220.0,221.0,6.8,7.46,,47.59359,-54.27349
2018-06-13 00:10:00+00:00,228.0,231.0,6.42,7.42,,47.59359,-54.27349
2018-06-13 00:20:00+00:00,233.0,234.0,6.92,7.34,,47.59359,-54.27349
2018-06-13 00:30:00+00:00,235.0,235.0,7.12,8.05,,47.59359,-54.27349
2018-06-13 00:40:00+00:00,234.0,237.0,7.0,7.67,,47.59359,-54.27349
2018-06-13 00:50:00+00:00,233.0,232.0,5.65,6.2,,47.59359,-54.27349
2018-06-13 01:00:00+00:00,240.0,240.0,7.4,8.2,,47.59359,-54.27349
2018-06-13 01:10:00+00:00,238.0,234.0,6.39,7.15,,47.59359,-54.27349
2018-06-13 01:20:00+00:00,243.0,237.0,6.12,7.11,,47.59359,-54.27349
2018-06-13 01:30:00+00:00,237.0,244.0,5.48,6.17,,47.59359,-54.27349
2018-06-13 01:40:00+00:00,245.0,242.0,5.35,6.11,,47.59359,-54.27349
2018-06-13 01:50:00+00:00,247.0,245.0,6.44,7.14,,47.59359,-54.27349
2018-06-13 02:00:00+00:00,232.0,235.0,5.88,6.77,,47.59359,-54.27349
2018-06-13 02:10:00+00:00,236.0,233.0,6.02,7.13,,47.59359,-54.27349
2018-06-13 02:20:00+00:00,237.0,236.0,7.56,8.58,,47.59359,-54.27349
2018-06-13 02:30:00+00:00,231.0,235.0,8.73,9.66,,47.59359,-54.27349
2018-06-13 02:40:00+00:00,220.0,221.0,7.69,8.69,,47.59359,-54.27349
2018-06-13 02:50:00+00:00,228.0,228.0,8.38,9.73,,47.59359,-54.27349
2018-06-13 03:00:00+00:00,230.0,230.0,9.59,11.07,,47.59359,-54.27349
2018-06-13 03:10:00+00:00,228.0,229.0,9.35,10.64,,47.59359,-54.27349
2018-06-13 03:20:00+00:00,226.0,227.0,9.05,10.37,,47.59359,-54.27349
2018-06-13 03:30:00+00:00,222.0,219.0,8.91,10.13,,47.59359,-54.27349
2018-06-13 03:40:00+00:00,218.0,219.0,8.48,9.16,,47.59359,-54.27349
2018-06-13 03:50:00+00:00,219.0,221.0,8.98,9.87,,47.59359,-54.27349
2018-06-13 04:00:00+00:00,223.0,225.0,7.99,8.84,,47.59359,-54.27349
2018-06-13 04:10:00+00:00,223.0,228.0,7.75,8.44,,47.59359,-54.27349
2018-06-13 04:20:00+00:00,218.0,219.0,8.19,9.03,,47.59359,-54.27349
2018-06-13 04:30:00+00:00,219.0,220.0,7.91,9.34,,47.59359,-54.27349
2018-06-13 04:40:00+00:00,216.0,215.0,8.17,8.91,,47.59359,-54.27349
2018-06-13 04:50:00+00:00,220.0,226.0,8.44,9.25,,47.59359,-54.27349
2018-06-13 05:00:00+00:00,225.0,222.0,8.47,9.9,,47.59359,-54.27349
2018-06-13 05:10:00+00:00,216.0,216.0,8.62,9.58,,47.59359,-54.27349
2018-06-13 05:20:00+00:00,214.0,217.0,9.82,10.82,,47.59359,-54.27349
2018-06-13 05:30:00+00:00,211.0,214.0,7.28,8.43,,47.59359,-54.27349
2018-06-13 05:40:00+00:00,211.0,209.0,7.8,8.38,,47.59359,-54.27349
2018-06-13 05:50:00+00:00,210.0,212.0,7.17,7.98,,47.59359,-54.27349
2018-06-13 06:00:00+00:00,205.0,205.0,7.53,8.38,,47.59359,-54.27349
2018-06-13 06:10:00+00:00,211.0,215.0,8.64,10.26,,47.59359,-54.27349
2018-06-13 06:20:00+00:00,211.0,225.0,9.18,10.75,,47.59359,-54.27349
2018-06-13 06:30:00+00:00,209.0,206.0,9.65,10.99,,47.59359,-54.27349
2018-06-13 06:40:00+00:00,204.0,198.0,9.9,11.01,,47.59359,-54.27349
2018-06-13 06:50:00+00:00,198.0,197.0,10.03,11.28,,47.59359,-54.27349
2018-06-13 07:00:00+00:00,200.0,199.0,9.82,10.82,,47.59359,-54.27349
2018-06-13 07:10:00+00:00,206.0,218.0,13.66,15.26,,47.59359,-54.27349
2018-06-13 07:20:00+00:00,208.0,212.0,13.81,15.19,,47.59359,-54.27349
2018-06-13 07:30:00+00:00,209.0,214.0,13.18,15.21,,47.59359,-54.27349
2018-06-13 07:40:00+00:00,212.0,213.0,13.48,15.23,,47.59359,-54.27349
2018-06-13 07:50:00+00:00,216.0,214.0,13.11,14.88,,47.59359,-54.27349
2018-06-13 08:00:00+00:00,218.0,218.0,13.23,14.6,,47.59359,-54.27349
2018-06-13 08:10:00+00:00,216.0,217.0,13.57,15.23,,47.59359,-54.27349
2018-06-13 08:20:00+00:00,216.0,220.0,12.38,13.78,,47.59359,-54.27349
2018-06-13 08:30:00+00:00,214.0,209.0,13.36,15.2,,47.59359,-54.27349
2018-06-13 08:40:00+00:00,210.0,215.0,15.16,17.9,,47.59359,-54.27349
2018-06-13 08:50:00+00:00,209.0,215.0,14.08,16.65,,47.59359,-54.27349
2018-06-13 09:00:00+00:00,207.0,209.0,16.17,18.2,,47.59359,-54.27349
2018-06-13 09:10:00+00:00,209.0,206.0,14.47,17.88,,47.59359,-54.27349
2018-06-13 09:20:00+00:00,209.0,214.0,14.47,16.38,,47.59359,-54.27349
2018-06-13 09:30:00+00:00,212.0,210.0,14.06,16.3,,47.59359,-54.27349
2018-06-13 09:40:00+00:00,212.0,210.0,15.19,18.32,,47.59359,-54.27349
2018-06-13 09:50:00+00:00,214.0,218.0,13.42,16.49,,47.59359,-54.27349
2018-06-13 10:00:00+00:00,216.0,216.0,14.53,17.0,,47.59359,-54.27349
2018-06-13 10:10:00+00:00,227.0,230.0,13.61,16.33,,47.59359,-54.27349
2018-06-13 10:20:00+00:00,223.0,230.0,16.23,19.24,,47.59359,-54.27349
2018-06-13 10:30:00+00:00,225.0,229.0,12.25,14.02,,47.59359,-54.27349
2018-06-13 10:40:00+00:00,223.0,224.0,13.95,15.82,,47.59359,-54.27349
2018-06-13 10:50:00+00:00,220.0,220.0,14.86,18.77,,47.59359,-54.27349
2018-06-13 11:00:00+00:00,215.0,218.0,14.95,16.57,,47.59359,-54.27349
2018-06-13 11:10:00+00:00,217.0,218.0,14.41,17.8,,47.59359,-54.27349
2018-06-13 11:20:00+00:00,222.0,227.0,14.78,18.33,,47.59359,-54.27349
2018-06-13 11:30:00+00:00,219.0,219.0,15.26,18.18,,47.59359,-54.27349
2018-06-13 11:40:00+00:00,219.0,221.0,16.34,19.31,,47.59359,-54.27349
2018-06-13 11:50:00+00:00,224.0,225.0,16.99,20.53,,47.59359,-54.27349
2018-06-13 12:00:00+00:00,228.0,228.0,15.87,20.11,,47.59359,-54.27349
2018-06-13 12:10:00+00:00,229.0,229.0,15.48,17.91,,47.59359,-54.27349
2018-06-13 12:20:00+00:00,230.0,232.0,15.35,20.52,,47.59359,-54.27349
2018-06-13 12:30:00+00:00,228.0,228.0,13.72,16.0,,47.59359,-54.27349
2018-06-13 12:40:00+00:00,230.0,232.0,14.85,17.33,,47.59359,-54.27349
2018-06-13 12:50:00+00:00,227.0,231.0,13.43,15.45,,47.59359,-54.27349
2018-06-13 13:00:00+00:00,229.0,224.0,13.5,15.38,,47.59359,-54.27349
2018-06-13 13:10:00+00:00,225.0,226.0,13.76,15.51,,47.59359,-54.27349
2018-06-13 13:20:00+00:00,229.0,230.0,12.23,13.66,,47.59359,-54.27349
2018-06-13 13:30:00+00:00,225.0,227.0,11.89,13.58,,47.59359,-54.27349
2018-06-13 13:40:00+00:00,225.0,220.0,12.12,13.23,,47.59359,-54.27349
2018-06-13 13:50:00+00:00,215.0,216.0,11.36,12.96,,47.59359,-54.27349
2018-06-13 14:00:00+00:00,214.0,215.0,13.96,15.85,,47.59359,-54.27349
2018-06-13 14:10:00+00:00,220.0,226.0,13.51,15.03,,47.59359,-54.27349
2018-06-13 14:20:00+00:00,233.0,238.0,12.15,14.96,,47.59359,-54.27349
2018-06-13 14:30:00+00:00,223.0,228.0,12.36,13.86,,47.59359,-54.27349
2018-06-13 14:40:00+00:00,225.0,222.0,11.44,13.3,,47.59359,-54.27349
2018-06-13 14:50:00+00:00,222.0,222.0,11.71,13.06,,47.59359,-54.27349
2018-06-13 15:00:00+00:00,223.0,227.0,10.94,12.04,,47.59359,-54.27349
2018-06-13 15:10:00+00:00,219.0,219.0,11.33,12.77,,47.59359,-54.27349
2018-06-13 15:20:00+00:00,221.0,220.0,10.69,12.37,,47.59359,-54.27349
2018-06-13 15:30:00+00:00,217.0,217.0,11.42,12.59,,47.59359,-54.27349
2018-06-13 15:40:00+00:00,217.0,216.0,11.18,12.46,,47.59359,-54.27349
2018-06-13 15:50:00+00:00,219.0,216.0,10.82,12.0,,47.59359,-54.27349
2018-06-13 16:00:00+00:00,220.0,223.0,11.18,12.76,,47.59359,-54.27349
2018-06-13 16:10:00+00:00,216.0,210.0,11.33,12.47,,47.59359,-54.27349
2018-06-13 16:20:00+00:00,217.0,210.0,11.79,14.56,,47.59359,-54.27349
2018-06-13 16:30:00+00:00,218.0,222.0,12.03,13.57,,47.59359,-54.27349
2018-06-13 16:40:00+00:00,218.0,217.0,12.17,14.46,,47.59359,-54.27349
2018-06-13 16:50:00+00:00,220.0,220.0,12.4,14.2,,47.59359,-54.27349
2018-06-13 17:00:00+00:00,221.0,222.0,12.76,14.36,,47.59359,-54.27349
2018-06-13 17:10:00+00:00,222.0,225.0,12.58,13.85,,47.59359,-54.27349
2018-06-13 17:20:00+00:00,218.0,220.0,13.04,14.63,,47.59359,-54.27349
2018-06-13 17:30:00+00:00,220.0,222.0,12.6,14.37,,47.59359,-54.27349
2018-06-13 17:40:00+00:00,222.0,224.0,11.86,13.83,,47.59359,-54.27349
2018-06-13 17:50:00+00:00,223.0,225.0,11.32,13.03,,47.59359,-54.27349
2018-06-13 18:00:00+00:00,242.0,245.0,12.54,17.42,,47.59359,-54.27349
2018-06-13 18:10:00+00:00,243.0,243.0,10.44,14.53,,47.59359,-54.27349
2018-06-13 18:20:00+00:00,244.0,254.0,10.25,12.81,,47.59359,-54.27349
2018-06-13 18:30:00+00:00,257.0,266.0,11.19,13.21,,47.59359,-54.27349
2018-06-13 18:40:00+00:00,263.0,262.0,17.69,21.05,,47.59359,-54.27349
2018-06-13 18:50:00+00:00,258.0,255.0,12.03,13.39,,47.59359,-54.27349
2018-06-13 19:00:00+00:00,261.0,266.0,13.52,16.48,,47.59359,-54.27349
2018-06-13 19:10:00+00:00,261.0,264.0,12.99,14.3,,47.59359,-54.27349
2018-06-13 19:20:00+00:00,265.0,266.0,14.74,17.8,,47.59359,-54.27349
2018-06-13 19:30:00+00:00,257.0,256.0,13.4,14.98,,47.59359,-54.27349
2018-06-13 19:40:00+00:00,268.0,263.0,12.68,16.11,,47.59359,-54.27349
2018-06-13 19:50:00+00:00,255.0,250.0,11.79,13.7,,47.59359,-54.27349
2018-06-13 20:00:00+00:00,256.0,254.0,14.83,17.03,,47.59359,-54.27349
2018-06-13 20:10:00+00:00,252.0,248.0,11.04,14.08,,47.59359,-54.27349
2018-06-13 20:20:00+00:00,264.0,259.0,10.7,15.41,,47.59359,-54.27349
2018-06-13 20:30:00+00:00,274.0,272.0,15.07,17.41,,47.59359,-54.27349
2018-06-13 20:40:00+00:00,270.0,276.0,14.25,17.31,,47.59359,-54.27349
2018-06-13 20:50:00+00:00,265.0,267.0,13.6,15.62,,47.59359,-54.27349
2018-06-13 21:00:00+00:00,262.0,262.0,11.88,13.53,,47.59359,-54.27349
2018-06-13 21:10:00+00:00,263.0,264.0,13.23,15.04,,47.59359,-54.27349
2018-06-13 21:20:00+00:00,261.0,262.0,12.51,14.3,,47.59359,-54.27349
2018-06-13 21:30:00+00:00,261.0,259.0,10.03,11.14,,47.59359,-54.27349
2018-06-13 21:40:00+00:00,262.0,269.0,10.16,11.57,,47.59359,-54.27349
2018-06-13 21:50:00+00:00,266.0,269.0,12.56,14.45,,47.59359,-54.27349
2018-06-13 22:00:00+00:00,262.0,260.0,12.79,13.93,,47.59359,-54.27349
2018-06-13 22:10:00+00:00,262.0,260.0,10.99,12.53,,47.59359,-54.27349
2018-06-13 22:20:00+00:00,261.0,262.0,11.17,12.48,,47.59359,-54.27349
2018-06-13 22:30:00+00:00,266.0,268.0,12.93,14.61,,47.59359,-54.27349
2018-06-13 22:40:00+00:00,269.0,269.0,12.08,13.69,,47.59359,-54.27349
2018-06-13 22:50:00+00:00,274.0,270.0,10.15,11.59,,47.59359,-54.27349
2018-06-13 23:00:00+00:00,269.0,273.0,8.19,9.4,,47.59359,-54.27349
2018-06-13 23:10:00+00:00,269.0,270.0,10.23,11.52,,47.59359,-54.27349
2018-06-13 23:20:00+00:00,271.0,273.0,9.16,11.84,,47.59359,-54.27349
2018-06-13 23:30:00+00:00,268.0,268.0,7.3,8.02,,47.59359,-54.27349
2018-06-13 23:40:00+00:00,272.0,277.0,6.37,7.05,,47.59359,-54.27349
2018-06-13 23:50:00+00:00,270.0,273.0,5.67,6.65,,47.59359,-54.27349
